Hourly Data Report for November 06, 2017

All times are specified in Local Standard Time (LST). Add 1 hour to adjust for Daylight Saving Time where and when it is observed.

MAYO A
YUKON TERRITORY

63°36'59.000" N
135°52'06.000" W
503.80 m
2100701
71965
YMA

Download Data

Hourly Data (November 2017)
Hourly Data Report for November 6, 2017
Temp Definition
°C
Dew Point Temp Definition
°C
Rel Hum Definition
%
Wind Dir Definition
10's deg

Wind Spd Definition
km/h
Visibility Definition
km
Stn Press Definition
kPa
Hmdx Definition


Wind Chill Definition


Weather Definition


TIME
00:00 Legend Double Dagger -12.2 -13.7 88 2 3 16.1 95.84   -14 Snow
01:00 Legend Double Dagger -12.7 -14.4 87 28 4 12.9 95.87   -15 Snow
02:00 Legend Double Dagger -13.2 -14.8 88 36 2 12.9 95.92   -15 Snow
03:00 Legend Double Dagger -12.7 -14.3 88 34 4 12.9 95.97   -15 Snow
04:00 Legend Double Dagger -12.9 -14.7 86 36 2 16.1 96.04   -14 Snow
05:00 Legend Double Dagger -13.4 -15.2 86 34 8 24.1 96.12   -18 Snow
06:00 Legend Double Dagger -15.6 -17.4 86 28 5 32.2 96.15   -19 LegendNANA
07:00 Legend Double Dagger -17.3 -19.3 85 29 7 32.2 96.24   -23 Clear
08:00 Legend Double Dagger -17.2 -19.2 85 26 4 32.2 96.34   -20 LegendNANA
09:00 Legend Double Dagger -17.7 -19.7 85 25 3 32.2 96.42   -20 LegendNANA
10:00 Legend Double Dagger -18.9 -21.1 83 26 3 32.2 96.52   -21 Mainly Clear
11:00 Legend Double Dagger -17.2 -19.4 84 28 7 32.2 96.63   -22 LegendNANA
12:00 Legend Double Dagger -14.0 -15.9 86 21 4 32.2 96.70   -17 LegendNANA
13:00 Legend Double Dagger -12.7 -14.7 85 22 4 32.2 96.77   -15 Clear
14:00 Legend Double Dagger -12.3 -14.5 84 36 1 32.2 96.79   -13 LegendNANA
15:00 Legend Double Dagger -13.1 -15.3 84 36 2 32.2 96.81   -14 LegendNANA
16:00 Legend Double Dagger -15.2 -16.7 89 36 2 32.2 96.86   -17 Clear
17:00 Legend Double Dagger -16.9 -18.7 86 36 2 32.2 96.87   -18 LegendNANA
18:00 Legend Double Dagger -20.2 -22.5 82 36 1 32.2 96.91   -21 LegendNANA
19:00 Legend Double Dagger -20.9 -23.2 83 36 3 32.2 96.97   -24 Mainly Clear
20:00 Legend Double Dagger -19.3 -21.6 83 24 4 32.2 97.07   -23 LegendNANA
21:00 Legend Double Dagger -18.6 -20.8 83 0 1 32.2 97.08   -19 LegendNANA
22:00 Legend Double Dagger -18.4 -20.6 83 36 1 32.2 97.10   -19 Mostly Cloudy
23:00 Legend Double Dagger -18.9 -21.1 83 36 1 32.2 97.13   -20 LegendNANA

Notes on Data Quality.

Legend

  • E = Estimated
  • M = Missing
  • NA = Not Available
  • ‡ = Partner data that is not subject to review by the National Climate Archives
Date modified: